| time (UTC) | temp F | wind direction | speed knots | gust knots | rain 1hr in | rain 24hr in | rain mn in | humidity % | barometer mb |
| 20260504002005 | 51 | 262 | 0.0 | 2.6 | 0.00 | 0.03 | 0.03 | 72 | 1030.2 |
| 20260504001503 | 51 | 297 | 1.7 | 3.5 | 0.00 | 0.03 | 0.03 | 72 | 1030.1 |
| 20260504000959 | 51 | 278 | 0.9 | 2.6 | 0.00 | 0.03 | 0.03 | 72 | 1030.2 |
| 20260504000456 | 51 | 248 | 1.7 | 3.5 | 0.00 | 0.03 | 0.03 | 71 | 1030.3 |
| 20260503235953 | 51 | 302 | 0.0 | 2.6 | 0.00 | 0.03 | 0.03 | 71 | 1030.4 |
| 20260503235451 | 51 | 218 | 0.9 | 2.6 | 0.00 | 0.03 | 0.03 | 71 | 1030.1 |
| 20260503234948 | 51 | 331 | 1.7 | 3.5 | 0.00 | 0.03 | 0.03 | 71 | 1030.5 |
| 20260503234446 | 51 | 329 | 1.7 | 7.8 | 0.00 | 0.03 | 0.03 | 71 | 1030.4 |
| 20260503233944 | 51 | 74 | 0.0 | 3.5 | 0.00 | 0.03 | 0.03 | 71 | 1030.4 |
| 20260503233440 | 51 | 267 | 2.6 | 5.2 | 0.00 | 0.03 | 0.03 | 71 | 1030.3 |
| 20260503232936 | 51 | 258 | 4.3 | 4.3 | 0.00 | 0.03 | 0.03 | 71 | 1030.3 |
| 20260503232433 | 51 | 165 | 2.6 | 7.8 | 0.00 | 0.03 | 0.03 | 71 | 1030.4 |
| 20260503231931 | 51 | 42 | 1.7 | 3.5 | 0.00 | 0.03 | 0.03 | 71 | 1030.7 |
| 20260503231429 | 51 | 31 | 0.0 | 9.6 | 0.00 | 0.03 | 0.03 | 72 | 1030.6 |
| 20260503230925 | 51 | 10 | 0.0 | 8.7 | 0.00 | 0.03 | 0.03 | 73 | 1030.7 |
| 20260503230421 | 51 | 278 | 1.7 | 4.3 | 0.00 | 0.03 | 0.03 | 73 | 1030.5 |
| 20260503225919 | 51 | 318 | 1.7 | 9.6 | 0.00 | 0.03 | 0.03 | 73 | 1030.6 |
| 20260503225415 | 51 | 293 | 6.1 | 9.6 | 0.00 | 0.03 | 0.03 | 73 | 1030.7 |
| 20260503224911 | 51 | 332 | 6.1 | 15.6 | 0.02 | 0.03 | 0.03 | 74 | 1030.8 |
| 20260503224408 | 51 | 335 | 1.7 | 5.2 | 0.02 | 0.03 | 0.03 | 74 | 1030.9 |
| 20260503223906 | 51 | 305 | 3.5 | 12.2 | 0.00 | 0.02 | 0.02 | 72 | 1030.8 |
| 20260503223404 | 51 | 296 | 2.6 | 5.2 | 0.00 | 0.02 | 0.02 | 73 | 1031.0 |
| 20260503222859 | 51 | 269 | 5.2 | 9.6 | 0.00 | 0.02 | 0.02 | 73 | 1030.8 |
| 20260503222358 | 51 | 276 | 7.8 | 11.3 | 0.00 | 0.02 | 0.02 | 73 | 1030.9 |
| 20260503221856 | 51 | 305 | 1.7 | 7.0 | 0.00 | 0.02 | 0.02 | 74 | 1030.9 |
| 20260503221354 | 51 | 321 | 1.7 | 14.8 | 0.00 | 0.02 | 0.02 | 75 | 1031.0 |
| 20260503220850 | 51 | 315 | 3.5 | 7.8 | 0.00 | 0.02 | 0.02 | 76 | 1031.0 |
| 20260503220347 | 51 | 294 | 1.7 | 6.1 | 0.00 | 0.02 | 0.02 | 76 | 1031.1 |
| 20260503215844 | 51 | 283 | 3.5 | 7.8 | 0.00 | 0.02 | 0.02 | 75 | 1031.2 |
| 20260503215341 | 50 | 307 | 1.7 | 5.2 | 0.00 | 0.02 | 0.02 | 75 | 1031.1 |
| 20260503214838 | 50 | 309 | 5.2 | 11.3 | 0.00 | 0.02 | 0.02 | 74 | 1031.2 |
| 20260503214336 | 50 | 325 | 2.6 | 7.0 | 0.00 | 0.02 | 0.02 | 75 | 1031.0 |
| 20260503213833 | 50 | 271 | 5.2 | 8.7 | 0.02 | 0.02 | 0.02 | 75 | 1031.1 |
| 20260503213330 | 50 | 332 | 1.7 | 8.7 | 0.02 | 0.02 | 0.02 | 75 | 1031.1 |
| 20260503212827 | 51 | 3 | 0.9 | 10.4 | 0.00 | 0.02 | 0.02 | 74 | 1031.1 |
| 20260503212325 | 51 | 277 | 3.5 | 16.5 | 0.02 | 0.02 | 0.02 | 72 | 1031.3 |
| 20260503211822 | 51 | 331 | 5.2 | 9.6 | 0.02 | 0.02 | 0.02 | 71 | 1031.3 |
| 20260503211319 | 51 | 329 | 2.6 | 14.8 | 0.00 | 0.02 | 0.02 | 71 | 1031.2 |
| 20260503210819 | 51 | 292 | 6.1 | 13.9 | 0.02 | 0.02 | 0.02 | 70 | 1031.2 |
| 20260503210317 | 52 | 359 | 2.6 | 16.5 | 0.05 | 0.02 | 0.02 | 70 | 1031.2 |
| 20260503205811 | 53 | 274 | 4.3 | 9.6 | 0.02 | 0.01 | 0.01 | 67 | 1031.1 |
| 20260503205308 | 54 | 335 | 3.5 | 13.0 | 0.02 | 0.01 | 0.01 | 63 | 1031.0 |
| 20260503204805 | 55 | 281 | 7.0 | 13.9 | 0.02 | 0.01 | 0.01 | 60 | 1031.0 |
| 20260503204303 | 55 | 305 | 6.1 | 13.0 | 0.00 | 0.00 | 0.00 | 56 | 1030.7 |
| 20260503203800 | 56 | 350 | 2.6 | 6.1 | 0.00 | 0.00 | 0.00 | 56 | 1030.6 |
| 20260503203257 | 56 | 333 | 4.3 | 10.4 | 0.00 | 0.00 | 0.00 | 52 | 1030.6 |
| 20260503202754 | 57 | 281 | 8.7 | 15.6 | 0.00 | 0.00 | 0.00 | 49 | 1030.5 |
| 20260503202252 | 57 | 325 | 5.2 | 7.0 | 0.00 | 0.00 | 0.00 | 47 | 1030.4 |
| 20260503201749 | 56 | 319 | 3.5 | 13.9 | 0.00 | 0.00 | 0.00 | 47 | 1030.6 |
| 20260503201247 | 56 | 325 | 6.1 | 13.0 | 0.00 | 0.00 | 0.00 | 47 | 1030.4 |
| 20260503200743 | 56 | 310 | 2.6 | 2.6 | 0.00 | 0.00 | 0.00 | 47 | 1030.3 |
| 20260503200239 | 56 | 282 | 3.5 | 7.0 | 0.02 | 0.00 | 0.00 | 47 | 1030.3 |
| 20260503195736 | 56 | 344 | 1.7 | 7.8 | 0.02 | 0.00 | 0.00 | 47 | 1030.6 |
| 20260503195233 | 56 | 349 | 2.6 | 7.0 | 0.00 | 0.00 | 0.00 | 48 | 1030.7 |
| 20260503194731 | 56 | 307 | 6.1 | 6.1 | 0.00 | 0.00 | 0.00 | 46 | 1030.8 |
| 20260503194226 | 56 | 347 | 2.6 | 5.2 | 0.00 | 0.00 | 0.00 | 45 | 1030.7 |
| 20260503193723 | 56 | 342 | 2.6 | 5.2 | 0.00 | 0.00 | 0.00 | 44 | 1030.5 |
| 20260503193219 | 57 | 355 | 1.7 | 4.3 | 0.00 | 0.00 | 0.00 | 44 | 1030.6 |
| 20260503192715 | 57 | 35 | 0.0 | 4.3 | 0.00 | 0.00 | 0.00 | 45 | 1030.6 |
| 20260503192210 | 57 | 322 | 2.6 | 7.8 | 0.00 | 0.00 | 0.00 | 42 | 1030.6 |
| 20260503191707 | 58 | 107 | 3.5 | 6.1 | 0.00 | 0.00 | 0.00 | 43 | 1030.9 |
| 20260503191204 | 57 | 6 | 3.5 | 6.1 | 0.00 | 0.00 | 0.00 | 43 | 1031.2 |
| 20260503190701 | 55 | 353 | 1.7 | 4.3 | 0.00 | 0.00 | 0.00 | 44 | 1031.4 |
| 20260503190158 | 55 | 310 | 2.6 | 4.3 | 0.00 | 0.00 | 0.00 | 42 | 1031.4 |
| 20260503185654 | 56 | 24 | 2.6 | 4.3 | 0.00 | 0.00 | 0.00 | 41 | 1031.4 |
| 20260503185149 | 56 | 349 | 0.9 | 6.1 | 0.00 | 0.00 | 0.00 | 41 | 1031.7 |
| 20260503184645 | 56 | 266 | 2.6 | 8.7 | 0.00 | 0.00 | 0.00 | 39 | 1031.7 |
| 20260503184142 | 57 | 210 | 6.1 | 7.8 | 0.00 | 0.00 | 0.00 | 40 | 1031.6 |
| 20260503183638 | 57 | 109 | 3.5 | 8.7 | 0.00 | 0.00 | 0.00 | 38 | 1031.6 |
| 20260503183136 | 57 | 214 | 1.7 | 9.6 | 0.00 | 0.00 | 0.00 | 36 | 1031.9 |
| 20260503182634 | 58 | 277 | 3.5 | 6.1 | 0.00 | 0.00 | 0.00 | 37 | 1031.9 |
| 20260503182132 | 58 | 237 | 2.6 | 10.4 | 0.00 | 0.00 | 0.00 | 34 | 1031.9 |
| 20260503181628 | 58 | 334 | 3.5 | 5.2 | 0.00 | 0.00 | 0.00 | 37 | 1031.8 |
| 20260503181125 | 57 | 157 | 3.5 | 7.0 | 0.00 | 0.00 | 0.00 | 37 | 1032.0 |
| 20260503180622 | 57 | 284 | 5.2 | 7.8 | 0.00 | 0.00 | 0.00 | 38 | 1032.1 |
| 20260503180120 | 58 | 186 | 1.7 | 7.0 | 0.00 | 0.00 | 0.00 | 36 | 1032.2 |
| 20260503175617 | 58 | 247 | 4.3 | 5.2 | 0.00 | 0.00 | 0.00 | 36 | 1032.2 |
| 20260503175114 | 58 | 256 | 0.9 | 7.0 | 0.00 | 0.00 | 0.00 | 36 | 1032.4 |
| 20260503174610 | 59 | 274 | 1.7 | 7.0 | 0.00 | 0.00 | 0.00 | 37 | 1032.4 |
| 20260503174107 | 58 | 266 | 0.9 | 7.0 | 0.00 | 0.00 | 0.00 | 38 | 1032.7 |
| 20260503173602 | 57 | 290 | 2.6 | 6.1 | 0.00 | 0.00 | 0.00 | 39 | 1032.8 |
| 20260503173059 | 57 | 229 | 2.6 | 6.1 | 0.00 | 0.00 | 0.00 | 37 | 1032.8 |
| 20260503172556 | 56 | 138 | 1.7 | 6.1 | 0.00 | 0.00 | 0.00 | 36 | 1032.9 |
| 20260503172053 | 56 | 348 | 0.9 | 4.3 | 0.00 | 0.00 | 0.00 | 38 | 1033.0 |
| 20260503171549 | 56 | 279 | 5.2 | 7.8 | 0.00 | 0.00 | 0.00 | 40 | 1033.1 |
| 20260503171047 | 56 | 275 | 5.2 | 9.6 | 0.00 | 0.00 | 0.00 | 39 | 1033.2 |
| 20260503170543 | 57 | 201 | 4.3 | 7.8 | 0.00 | 0.00 | 0.00 | 40 | 1033.3 |
| 20260503150936 | 51 | 187 | 1.7 | 3.5 | 0.00 | 0.00 | 0.00 | 41 | 1034.7 |
| 20260503150432 | 51 | 280 | 3.5 | 5.2 | 0.00 | 0.00 | 0.00 | 42 | 1034.8 |
| 20260503131325 | 46 | 308 | 1.7 | 3.5 | 0.00 | 0.00 | 0.00 | 51 | 1035.6 |
| 20260503130823 | 46 | 260 | 1.7 | 4.3 | 0.00 | 0.00 | 0.00 | 52 | 1035.6 |
| 20260503130321 | 46 | 10 | 1.7 | 5.2 | 0.00 | 0.00 | 0.00 | 51 | 1035.6 |
| 20260503110714 | 31 | 352 | 0.9 | 1.7 | 0.00 | 0.00 | 0.00 | 87 | 1035.6 |
| 20260503110211 | 30 | 40 | 0.9 | 0.9 | 0.00 | 0.00 | 0.00 | 87 | 1035.7 |
| 20260503100137 | 29 | 303 | 0.0 | 0.0 | 0.00 | 0.00 | 0.00 | 83 | 1035.7 |
| 20260503081532 | 28 | 352 | 0.0 | 1.7 | 0.00 | 0.00 | 0.00 | 80 | 1036.3 |
| 20260503081030 | 28 | 31 | 0.0 | 1.7 | 0.00 | 0.00 | 0.00 | 81 | 1036.2 |
| 20260503080526 | 28 | 34 | 1.7 | 1.7 | 0.00 | 0.00 | 0.00 | 82 | 1036.2 |
| 20260503072459 | 28 | 32 | 0.0 | 0.0 | 0.00 | 0.00 | 0.00 | 77 | 1036.3 |
| 20260503071956 | 28 | 338 | 0.0 | 0.9 | 0.00 | 0.00 | 0.00 | 78 | 1036.5 |
| 20260503071453 | 28 | 335 | 0.0 | 0.0 | 0.00 | 0.00 | 0.00 | 78 | 1036.2 |
| 20260503070949 | 28 | 24 | 0.9 | 0.9 | 0.00 | 0.00 | 0.00 | 78 | 1036.3 |
| 20260503070447 | 28 | 34 | 0.0 | 0.0 | 0.00 | 0.00 | 0.00 | 78 | 1036.2 |
| 20260503054906 | 30 | 299 | 0.0 | 2.6 | 0.00 | 0.00 | 0.00 | 73 | 1036.9 |
| 20260503054402 | 30 | 11 | 0.0 | 1.7 | 0.00 | 0.00 | 0.00 | 73 | 1036.8 |
| 20260503053900 | 30 | 310 | 0.0 | 0.0 | 0.00 | 0.00 | 0.00 | 73 | 1036.7 |
| 20260503053358 | 31 | 288 | 1.7 | 1.7 | 0.00 | 0.00 | 0.00 | 73 | 1036.9 |
| 20260503052853 | 31 | 53 | 0.0 | 0.0 | 0.00 | 0.00 | 0.00 | 72 | 1036.9 |
| 20260503052351 | 31 | 31 | 0.0 | 1.7 | 0.00 | 0.00 | 0.00 | 70 | 1037.0 |
| 20260503051847 | 31 | 311 | 1.7 | 1.7 | 0.00 | 0.00 | 0.00 | 70 | 1037.1 |
| 20260503051343 | 31 | 30 | 0.0 | 0.9 | 0.00 | 0.00 | 0.00 | 68 | 1036.8 |
| 20260503050840 | 31 | 340 | 1.7 | 1.7 | 0.00 | 0.00 | 0.00 | 68 | 1037.0 |
| 20260503050337 | 32 | 15 | 1.7 | 1.7 | 0.00 | 0.00 | 0.00 | 68 | 1037.0 |
| 20260503045834 | 32 | 351 | 1.7 | 1.7 | 0.00 | 0.00 | 0.00 | 66 | 1036.8 |
| 20260503045332 | 32 | 358 | 1.7 | 1.7 | 0.00 | 0.00 | 0.00 | 65 | 1037.0 |
| 20260503044828 | 33 | 1 | 1.7 | 1.7 | 0.00 | 0.00 | 0.00 | 65 | 1037.0 |
| 20260503044325 | 33 | 355 | 1.7 | 1.7 | 0.00 | 0.00 | 0.00 | 64 | 1036.9 |
| 20260503043822 | 33 | 357 | 1.7 | 1.7 | 0.00 | 0.00 | 0.00 | 62 | 1037.3 |
| 20260503043319 | 34 | 359 | 1.7 | 1.7 | 0.00 | 0.00 | 0.00 | 60 | 1037.1 |
| 20260503042815 | 34 | 4 | 1.7 | 2.6 | 0.00 | 0.00 | 0.00 | 59 | 1037.1 |
| 20260503042312 | 35 | 4 | 2.6 | 3.5 | 0.00 | 0.00 | 0.00 | 58 | 1037.1 |
| 20260503041808 | 35 | 12 | 2.6 | 2.6 | 0.00 | 0.00 | 0.00 | 57 | 1037.2 |
| 20260503041306 | 36 | 5 | 2.6 | 2.6 | 0.00 | 0.00 | 0.00 | 55 | 1037.2 |
| 20260503040803 | 36 | 354 | 2.6 | 2.6 | 0.00 | 0.00 | 0.00 | 54 | 1037.2 |
| 20260503040301 | 37 | 348 | 2.6 | 3.5 | 0.00 | 0.00 | 0.00 | 54 | 1037.1 |
| 20260503035757 | 37 | 356 | 2.6 | 3.5 | 0.00 | 0.01 | 0.01 | 53 | 1037.3 |
| 20260503035255 | 37 | 348 | 1.7 | 3.5 | 0.00 | 0.01 | 0.01 | 54 | 1037.2 |
| 20260503034752 | 37 | 342 | 2.6 | 3.5 | 0.00 | 0.01 | 0.01 | 55 | 1037.2 |
| 20260503034249 | 37 | 345 | 2.6 | 2.6 | 0.00 | 0.01 | 0.01 | 55 | 1037.1 |
| 20260503033746 | 37 | 334 | 2.6 | 3.5 | 0.00 | 0.01 | 0.01 | 54 | 1037.1 |
| 20260503033244 | 38 | 341 | 2.6 | 3.5 | 0.00 | 0.01 | 0.01 | 53 | 1037.3 |
| 20260503032742 | 38 | 12 | 1.7 | 2.6 | 0.00 | 0.01 | 0.01 | 53 | 1037.1 |
| 20260503032240 | 38 | 357 | 1.7 | 2.6 | 0.00 | 0.01 | 0.01 | 53 | 1037.1 |
| 20260503031737 | 38 | 352 | 1.7 | 3.5 | 0.00 | 0.01 | 0.01 | 53 | 1037.1 |
| 20260503031235 | 38 | 350 | 2.6 | 4.3 | 0.00 | 0.01 | 0.01 | 53 | 1037.2 |
| 20260503030731 | 39 | 339 | 2.6 | 3.5 | 0.00 | 0.01 | 0.01 | 52 | 1037.1 |
| 20260503030227 | 38 | 1 | 1.7 | 4.3 | 0.00 | 0.01 | 0.01 | 52 | 1037.2 |
| 20260503025724 | 38 | 345 | 2.6 | 3.5 | 0.00 | 0.01 | 0.01 | 52 | 1037.1 |
| 20260503025222 | 38 | 333 | 3.5 | 3.5 | 0.00 | 0.01 | 0.01 | 53 | 1037.2 |
| 20260503024718 | 38 | 328 | 2.6 | 3.5 | 0.00 | 0.01 | 0.01 | 54 | 1037.4 |
| 20260503024216 | 38 | 353 | 1.7 | 3.5 | 0.00 | 0.01 | 0.01 | 55 | 1037.3 |
| 20260503023713 | 37 | 334 | 3.5 | 3.5 | 0.00 | 0.01 | 0.01 | 56 | 1037.3 |
| 20260503023209 | 37 | 329 | 3.5 | 3.5 | 0.00 | 0.01 | 0.01 | 57 | 1037.3 |
| 20260503022706 | 37 | 357 | 2.6 | 3.5 | 0.00 | 0.01 | 0.01 | 59 | 1037.4 |
| 20260503022205 | 37 | 350 | 2.6 | 3.5 | 0.00 | 0.01 | 0.01 | 61 | 1037.3 |
| 20260503021702 | 37 | 333 | 2.6 | 3.5 | 0.00 | 0.01 | 0.01 | 61 | 1037.3 |
| 20260503021159 | 37 | 355 | 2.6 | 3.5 | 0.00 | 0.01 | 0.01 | 64 | 1037.4 |
| 20260503020656 | 37 | 0 | 2.6 | 2.6 | 0.00 | 0.01 | 0.01 | 64 | 1037.3 |
| 20260503020153 | 37 | 352 | 1.7 | 2.6 | 0.00 | 0.01 | 0.01 | 64 | 1037.3 |
| 20260503015650 | 37 | 356 | 2.6 | 2.6 | 0.00 | 0.01 | 0.01 | 66 | 1037.3 |
| 20260503015147 | 37 | 345 | 1.7 | 2.6 | 0.00 | 0.01 | 0.01 | 63 | 1037.3 |
| 20260503014643 | 38 | 343 | 1.7 | 2.6 | 0.00 | 0.01 | 0.01 | 64 | 1037.4 |
| 20260503014141 | 38 | 347 | 1.7 | 1.7 | 0.00 | 0.01 | 0.01 | 64 | 1037.1 |
| 20260503013638 | 38 | 340 | 1.7 | 1.7 | 0.00 | 0.01 | 0.01 | 64 | 1037.4 |
| 20260503013136 | 39 | 345 | 0.9 | 1.7 | 0.00 | 0.01 | 0.01 | 61 | 1037.2 |
| 20260503012633 | 39 | 0 | 0.0 | 0.9 | 0.00 | 0.01 | 0.01 | 64 | 1037.3 |
| 20260503012129 | 39 | 36 | 0.0 | 0.0 | 0.00 | 0.01 | 0.01 | 62 | 1037.2 |
| 20260503011626 | 40 | 36 | 0.0 | 0.9 | 0.00 | 0.01 | 0.01 | 61 | 1037.3 |
| 20260503011123 | 40 | 240 | 0.0 | 0.9 | 0.00 | 0.01 | 0.01 | 60 | 1037.1 |
| 20260503010619 | 40 | 299 | 0.0 | 0.0 | 0.00 | 0.01 | 0.01 | 62 | 1037.0 |
| 20260503010117 | 41 | 251 | 0.0 | 0.9 | 0.00 | 0.01 | 0.01 | 62 | 1037.1 |
| 20260503005614 | 41 | 269 | 0.0 | 0.9 | 0.00 | 0.01 | 0.01 | 59 | 1037.0 |
| 20260503005111 | 41 | 232 | 0.0 | 0.9 | 0.00 | 0.01 | 0.01 | 56 | 1037.0 |
| 20260503004607 | 41 | 234 | 0.0 | 0.0 | 0.00 | 0.01 | 0.01 | 53 | 1037.0 |
| 20260503004106 | 42 | 230 | 0.0 | 0.0 | 0.00 | 0.01 | 0.01 | 52 | 1037.1 |
| 20260503003602 | 42 | 282 | 0.9 | 0.9 | 0.00 | 0.01 | 0.01 | 51 | 1037.1 |
| 20260503003059 | 42 | 340 | 0.0 | 1.7 | 0.00 | 0.01 | 0.01 | 50 | 1037.0 |
| 20260503002556 | 43 | 302 | 0.9 | 2.6 | 0.00 | 0.01 | 0.01 | 49 | 1037.1 |